When you browse on this site, cookies collect data to enhance your experience and personalize the content and advertising you see.
Visit our Privacy Policy to learn more. By continuing to use the site, you agree to this use of cookies and data.
  • en France
  • Liste des pays
  • À 7 jours
  • Température de l'eau
  • Carte satellitaire
  • Carte météo
  • Widgets météo
  • user-avatar
    Se connecter

    Météo par heure à Chernobozhe

    Ce jour, 19 Février, Mardi

    Heure Température Précipitation Vent Pression Humidité
    00:00 -4°C° 0 mm 4 m/s 756 mmHg 72%
    01:00 -4°C° 0 mm 5 m/s 756 mmHg 73%
    02:00 -4°C° 0 mm 5 m/s 755 mmHg 79%
    03:00 -4°C° 0 mm 5 m/s 754 mmHg 82%
    04:00 -4°C° 0 mm 5 m/s 754 mmHg 85%
    05:00 -2°C° 0 mm 5 m/s 753 mmHg 88%
    06:00 -2°C° 0 mm 5 m/s 753 mmHg 88%
    07:00 -2°C° 0 mm 5 m/s 752 mmHg 89%
    08:00 -2°C° 0 mm 5 m/s 752 mmHg 89%
    09:00 -1°C° 0 mm 5 m/s 751 mmHg 89%
    10:00 -1°C° 0 mm 4 m/s 751 mmHg 88%
    11:00 0°C° 0 mm 4 m/s 750 mmHg 88%
    12:00 0°C° 0 mm 4 m/s 750 mmHg 88%
    13:00 +1°C° 0 mm 4 m/s 749 mmHg 88%
    14:00 +1°C° 0 mm 4 m/s 748 mmHg 88%
    15:00 +1°C° 0 mm 4 m/s 748 mmHg 88%
    16:00 +1°C° 0 mm 4 m/s 747 mmHg 89%
    17:00 +1°C° 0 mm 4 m/s 746 mmHg 89%
    18:00 +1°C° 0 mm 4 m/s 746 mmHg 89%
    19:00 +1°C° 0 mm 4 m/s 745 mmHg 89%
    20:00 +1°C° 0 mm 5 m/s 744 mmHg 89%
    21:00 +1°C° 0 mm 4 m/s 744 mmHg 90%
    22:00 +1°C° 0 mm 4 m/s 743 mmHg 90%
    23:00 +1°C° 0 mm 4 m/s 742 mmHg 91%

    Demain, 20 Février, Mercredi

    Heure Température Précipitation Vent Pression Humidité
    00:00 +1°C° 0.3 mm 4 m/s 742 mmHg 91%
    01:00 +1°C° 0.3 mm 4 m/s 742 mmHg 91%
    02:00 0°C° 0.3 mm 4 m/s 742 mmHg 91%
    03:00 0°C° 0 mm 4 m/s 741 mmHg 92%
    04:00 0°C° 0 mm 4 m/s 741 mmHg 92%
    05:00 0°C° 0 mm 4 m/s 741 mmHg 92%
    06:00 0°C° 0.2 mm 4 m/s 741 mmHg 91%
    07:00 0°C° 0.2 mm 4 m/s 741 mmHg 91%
    08:00 0°C° 0.2 mm 4 m/s 741 mmHg 90%
    09:00 +1°C° 0 mm 4 m/s 741 mmHg 88%
    10:00 +1°C° 0 mm 5 m/s 740 mmHg 86%
    11:00 +2°C° 0 mm 5 m/s 740 mmHg 84%
    12:00 +1°C° 0.2 mm 5 m/s 740 mmHg 85%
    13:00 +1°C° 0.2 mm 5 m/s 740 mmHg 85%
    14:00 +1°C° 0.2 mm 5 m/s 739 mmHg 86%
    15:00 +1°C° 0.3 mm 4 m/s 739 mmHg 86%
    16:00 0°C° 0.3 mm 4 m/s 739 mmHg 87%
    17:00 0°C° 0.3 mm 4 m/s 739 mmHg 88%
    18:00 -1°C° 0.3 mm 4 m/s 740 mmHg 87%
    19:00 -1°C° 0.3 mm 5 m/s 740 mmHg 87%
    20:00 -2°C° 0.3 mm 5 m/s 741 mmHg 86%
    21:00 -2°C° 0.2 mm 5 m/s 742 mmHg 84%
    22:00 -4°C° 0.2 mm 6 m/s 743 mmHg 82%
    23:00 -5°C° 0.2 mm 6 m/s 743 mmHg 80%

    Après-demain, 21 Février, Jeudi

    Heure Température Précipitation Vent Pression Humidité
    00:00 -5°C° 0 mm 6 m/s 744 mmHg 78%
    01:00 -5°C° 0 mm 6 m/s 745 mmHg 76%
    02:00 -5°C° 0 mm 6 m/s 746 mmHg 74%
    03:00 -6°C° 0.1 mm 6 m/s 746 mmHg 73%
    04:00 -6°C° 0.1 mm 6 m/s 747 mmHg 71%
    05:00 -8°C° 0.1 mm 6 m/s 747 mmHg 70%
    06:00 -8°C° 0.1 mm 6 m/s 748 mmHg 70%
    07:00 -8°C° 0.1 mm 6 m/s 749 mmHg 71%
    08:00 -9°C° 0.1 mm 6 m/s 750 mmHg 71%
    09:00 -9°C° 0.1 mm 6 m/s 751 mmHg 69%
    10:00 -8°C° 0.1 mm 6 m/s 751 mmHg 67%
    11:00 -8°C° 0.1 mm 6 m/s 752 mmHg 66%
    12:00 -8°C° 0.1 mm 6 m/s 753 mmHg 65%
    13:00 -8°C° 0.1 mm 6 m/s 754 mmHg 64%
    14:00 -8°C° 0.1 mm 6 m/s 755 mmHg 63%
    15:00 -8°C° 0 mm 5 m/s 756 mmHg 64%
    16:00 -8°C° 0 mm 5 m/s 756 mmHg 64%
    17:00 -8°C° 0 mm 5 m/s 757 mmHg 65%
    18:00 -10°C° 0 mm 5 m/s 758 mmHg 66%
    19:00 -10°C° 0 mm 5 m/s 759 mmHg 66%
    20:00 -11°C° 0 mm 5 m/s 760 mmHg 67%
    21:00 -11°C° 0 mm 5 m/s 760 mmHg 67%
    22:00 -10°C° 0 mm 4 m/s 761 mmHg 67%
    23:00 -10°C° 0 mm 4 m/s 762 mmHg 67%

    22 Février, Vendredi

    Heure Température Précipitation Vent Pression Humidité
    00:00 -11°C° 0 mm 4 m/s 762 mmHg 69%
    01:00 -11°C° 0 mm 4 m/s 763 mmHg 70%
    02:00 -10°C° 0 mm 3 m/s 764 mmHg 72%
    03:00 -10°C° 0 mm 3 m/s 764 mmHg 74%
    04:00 -10°C° 0 mm 3 m/s 765 mmHg 76%
    05:00 -10°C° 0 mm 3 m/s 765 mmHg 78%
    06:00 -10°C° 0 mm 3 m/s 766 mmHg 76%
    07:00 -12°C° 0 mm 3 m/s 766 mmHg 74%
    08:00 -12°C° 0 mm 3 m/s 766 mmHg 73%
    09:00 -11°C° 0 mm 4 m/s 766 mmHg 67%
    10:00 -9°C° 0 mm 4 m/s 766 mmHg 60%
    11:00 -8°C° 0 mm 5 m/s 766 mmHg 54%
    12:00 -8°C° 0 mm 5 m/s 766 mmHg 56%
    13:00 -8°C° 0 mm 5 m/s 767 mmHg 58%
    14:00 -8°C° 0 mm 5 m/s 767 mmHg 59%
    15:00 -8°C° 0 mm 5 m/s 767 mmHg 63%
    16:00 -10°C° 0 mm 5 m/s 767 mmHg 67%
    17:00 -10°C° 0 mm 5 m/s 768 mmHg 71%
    18:00 -11°C° 0 mm 5 m/s 768 mmHg 73%
    19:00 -10°C° 0 mm 4 m/s 769 mmHg 74%
    20:00 -11°C° 0 mm 4 m/s 770 mmHg 76%
    21:00 -11°C° 0 mm 4 m/s 770 mmHg 77%
    22:00 -12°C° 0 mm 3 m/s 770 mmHg 77%
    23:00 -12°C° 0 mm 3 m/s 770 mmHg 78%

    23 Février, Samedi

    Heure Température Précipitation Vent Pression Humidité
    00:00 -10°C° 0 mm 2 m/s 771 mmHg 78%
    01:00 -10°C° 0 mm 2 m/s 771 mmHg 78%
    02:00 -12°C° 0 mm 2 m/s 771 mmHg 79%
    03:00 -12°C° 0 mm 2 m/s 771 mmHg 80%
    04:00 -10°C° 0 mm 1 m/s 771 mmHg 81%
    05:00 -10°C° 0 mm 1 m/s 771 mmHg 82%
    06:00 -10°C° 0 mm 1 m/s 771 mmHg 80%
    07:00 -9°C° 0 mm 1 m/s 771 mmHg 78%
    08:00 -9°C° 0 mm 1 m/s 771 mmHg 77%
    09:00 -8°C° 0 mm 1 m/s 771 mmHg 70%
    10:00 -7°C° 0 mm 1 m/s 770 mmHg 64%
    11:00 -6°C° 0 mm 1 m/s 770 mmHg 57%
    12:00 -6°C° 0 mm 1 m/s 770 mmHg 56%
    13:00 -6°C° 0 mm 1 m/s 770 mmHg 55%
    14:00 -6°C° 0 mm 2 m/s 770 mmHg 54%
    15:00 -6°C° 0 mm 2 m/s 769 mmHg 59%
    16:00 -6°C° 0 mm 2 m/s 769 mmHg 64%
    17:00 -7°C° 0 mm 2 m/s 769 mmHg 69%
    18:00 -7°C° 0 mm 2 m/s 769 mmHg 74%
    19:00 -7°C° 0 mm 2 m/s 769 mmHg 78%
    20:00 -7°C° 0 mm 2 m/s 769 mmHg 83%
    21:00 -7°C° 0 mm 2 m/s 769 mmHg 85%
    22:00 -7°C° 0 mm 2 m/s 769 mmHg 87%
    23:00 -7°C° 0 mm 2 m/s 769 mmHg 90%

    24 Février, Dimanche

    Heure Température Précipitation Vent Pression Humidité
    00:00 -6°C° 0 mm 1 m/s 770 mmHg 90%
    01:00 -4°C° 0 mm 1 m/s 770 mmHg 91%
    02:00 -4°C° 0 mm 1 m/s 770 mmHg 91%
    03:00 -4°C° 0 mm 1 m/s 770 mmHg 92%
    04:00 -4°C° 0 mm 1 m/s 769 mmHg 92%
    05:00 -6°C° 0 mm 2 m/s 769 mmHg 93%
    06:00 -5°C° 0 mm 2 m/s 769 mmHg 93%
    07:00 -5°C° 0 mm 2 m/s 769 mmHg 93%
    08:00 -5°C° 0 mm 2 m/s 769 mmHg 93%
    09:00 -4°C° 0 mm 2 m/s 769 mmHg 91%
    10:00 -3°C° 0 mm 2 m/s 769 mmHg 90%
    11:00 -2°C° 0 mm 3 m/s 769 mmHg 88%
    12:00 -2°C° 0 mm 3 m/s 768 mmHg 87%
    13:00 -1°C° 0 mm 3 m/s 768 mmHg 87%
    14:00 -1°C° 0 mm 3 m/s 768 mmHg 86%
    15:00 -1°C° 0 mm 3 m/s 767 mmHg 88%
    16:00 -1°C° 0 mm 3 m/s 767 mmHg 89%
    17:00 -1°C° 0 mm 3 m/s 767 mmHg 90%
    18:00 -1°C° 0 mm 3 m/s 766 mmHg 91%
    19:00 -2°C° 0 mm 4 m/s 766 mmHg 92%
    20:00 -2°C° 0 mm 4 m/s 766 mmHg 93%
    21:00 -2°C° 0 mm 4 m/s 765 mmHg 93%
    22:00 -1°C° 0 mm 4 m/s 764 mmHg 93%
    23:00 -1°C° 0 mm 4 m/s 764 mmHg 92%
    Voir plus